TimeEDT,TemperatureF,Dew PointF,Humidity,Sea Level PressureIn,VisibilityMPH,Wind Direction,Wind SpeedMPH,Gust SpeedMPH,PrecipitationIn,Events,Conditions,WindDirDegrees,DateUTC
12:15 AM,65.5,43.9,46,30.01,10.0,NE,4.6,-,N/A,,Clear,40,2013-05-17 04:15:00
12:35 AM,63.1,44.4,50,30.01,10.0,ENE,6.9,-,N/A,,Clear,60,2013-05-17 04:35:00
12:54 AM,62.1,44.8,53,30.02,10.0,East,11.5,-,N/A,,Clear,80,2013-05-17 04:54:00
1:15 AM,62.2,42.8,49,30.02,10.0,East,8.1,-,N/A,,Clear,90,2013-05-17 05:15:00
1:35 AM,61.2,42.8,51,30.02,10.0,East,8.1,-,N/A,,Clear,100,2013-05-17 05:35:00
1:54 AM,59.4,43.2,55,30.02,10.0,East,8.1,-,N/A,,Clear,80,2013-05-17 05:54:00
2:15 AM,58.5,41.4,53,30.03,10.0,ENE,5.8,9.2,N/A,,Clear,70,2013-05-17 06:15:00
2:35 AM,57.4,40.6,54,30.03,10.0,ENE,6.9,-,N/A,,Clear,70,2013-05-17 06:35:00
2:54 AM,56.7,38.3,50,30.03,10.0,ENE,6.9,-,N/A,,Clear,60,2013-05-17 06:54:00
3:15 AM,55.4,38.8,54,30.03,10.0,ENE,6.9,-,N/A,,Clear,70,2013-05-17 07:15:00
3:34 AM,54.0,39.4,58,30.03,10.0,ENE,10.4,-,N/A,,Clear,60,2013-05-17 07:34:00
3:54 AM,54.0,38.3,55,30.04,10.0,East,8.1,-,N/A,,Clear,80,2013-05-17 07:54:00
4:15 AM,52.7,37.9,57,30.05,10.0,East,5.8,-,N/A,,Clear,80,2013-05-17 08:15:00
4:34 AM,51.6,37.9,60,30.04,10.0,East,6.9,-,N/A,,Clear,80,2013-05-17 08:34:00
4:55 AM,52.5,37.8,57,30.04,10.0,East,5.8,-,N/A,,Clear,90,2013-05-17 08:55:00
5:15 AM,52.5,37.4,56,30.05,10.0,East,6.9,-,N/A,,Clear,80,2013-05-17 09:15:00
5:34 AM,53.1,36.7,54,30.05,10.0,East,8.1,-,N/A,,Clear,100,2013-05-17 09:34:00
5:55 AM,53.2,36.0,52,30.06,10.0,East,5.8,-,N/A,,Clear,90,2013-05-17 09:55:00
6:15 AM,53.8,35.6,50,30.07,10.0,ESE,8.1,-,N/A,,Clear,110,2013-05-17 10:15:00
6:34 AM,54.1,35.4,49,30.07,10.0,East,10.4,-,N/A,,Clear,100,2013-05-17 10:34:00
6:55 AM,54.0,36.0,51,30.08,10.0,East,10.4,-,N/A,,Clear,100,2013-05-17 10:55:00
7:15 AM,54.3,36.9,52,30.08,10.0,East,10.4,-,N/A,,Clear,100,2013-05-17 11:15:00
7:34 AM,54.0,37.8,54,30.08,10.0,ESE,10.4,18.4,N/A,,Clear,110,2013-05-17 11:34:00
8:15 AM,56.7,38.8,51,30.09,10.0,ESE,11.5,-,N/A,,Clear,110,2013-05-17 12:15:00
8:34 AM,58.3,39.7,50,30.10,10.0,ESE,6.9,-,N/A,,Clear,110,2013-05-17 12:34:00
8:55 AM,59.4,39.0,47,30.11,10.0,ESE,9.2,-,N/A,,Clear,110,2013-05-17 12:55:00
9:14 AM,60.1,39.6,47,30.11,10.0,East,10.4,-,N/A,,Clear,100,2013-05-17 13:14:00
9:34 AM,62.1,40.3,45,30.12,10.0,East,10.4,-,N/A,,Clear,100,2013-05-17 13:34:00
9:55 AM,63.0,39.4,42,30.12,10.0,East,15.0,19.6,N/A,,Clear,100,2013-05-17 13:55:00
10:14 AM,64.2,39.6,40,30.11,10.0,East,13.8,-,N/A,,Clear,100,2013-05-17 14:14:00
10:34 AM,64.9,39.6,39,30.11,10.0,ESE,12.7,18.4,N/A,,Clear,110,2013-05-17 14:34:00
10:55 AM,66.2,41.2,40,30.11,10.0,ESE,11.5,18.4,N/A,,Clear,120,2013-05-17 14:55:00
11:14 AM,67.6,41.9,39,30.11,10.0,East,11.5,17.3,N/A,,Scattered Clouds,90,2013-05-17 15:14:00
11:35 AM,68.7,42.4,39,30.11,10.0,East,9.2,-,N/A,,Clear,100,2013-05-17 15:35:00
11:55 AM,69.4,42.8,38,30.11,10.0,ESE,9.2,-,N/A,,Clear,120,2013-05-17 15:55:00
12:14 PM,70.2,42.6,37,30.11,10.0,ESE,11.5,-,N/A,,Clear,120,2013-05-17 16:14:00
12:35 PM,71.4,42.6,35,30.11,10.0,East,11.5,-,N/A,,Clear,100,2013-05-17 16:35:00
1:14 PM,74.5,42.4,32,30.11,10.0,East,11.5,18.4,N/A,,Clear,100,2013-05-17 17:14:00
1:35 PM,74.5,41.9,31,30.11,10.0,East,12.7,-,N/A,,Clear,100,2013-05-17 17:35:00
1:54 PM,75.2,41.5,30,30.10,10.0,East,10.4,16.1,N/A,,Clear,100,2013-05-17 17:54:00
2:14 PM,75.2,42.1,30,30.10,10.0,East,11.5,16.1,N/A,,Clear,90,2013-05-17 18:14:00
2:35 PM,74.3,42.4,32,30.10,10.0,East,11.5,-,N/A,,Clear,100,2013-05-17 18:35:00
3:14 PM,75.7,42.3,30,30.10,10.0,East,11.5,17.3,N/A,,Clear,80,2013-05-17 19:14:00
3:35 PM,76.3,42.1,29,30.09,10.0,ENE,10.4,-,N/A,,Clear,70,2013-05-17 19:35:00
3:54 PM,76.6,42.1,29,30.09,10.0,East,12.7,16.1,N/A,,Clear,100,2013-05-17 19:54:00
4:15 PM,76.8,42.6,29,30.08,10.0,ESE,10.4,-,N/A,,Clear,120,2013-05-17 20:15:00
4:35 PM,77.0,43.0,30,30.07,10.0,ESE,13.8,-,N/A,,Clear,110,2013-05-17 20:35:00
4:54 PM,76.5,42.8,30,30.07,10.0,East,12.7,19.6,N/A,,Clear,100,2013-05-17 20:54:00
5:15 PM,76.3,43.2,31,30.07,10.0,East,10.4,-,N/A,,Clear,100,2013-05-17 21:15:00
5:34 PM,75.7,42.8,31,30.07,7.0,ESE,11.5,-,N/A,,Clear,120,2013-05-17 21:34:00
5:55 PM,75.6,43.2,31,30.08,10.0,ESE,9.2,19.6,N/A,,Clear,110,2013-05-17 21:55:00
6:14 PM,74.8,42.8,32,30.08,10.0,East,13.8,-,N/A,,Scattered Clouds,90,2013-05-17 22:14:00
6:34 PM,74.1,43.9,34,30.07,10.0,East,11.5,19.6,N/A,,Mostly Cloudy,100,2013-05-17 22:34:00
6:55 PM,72.7,44.6,37,30.08,10.0,East,13.8,18.4,N/A,,Mostly Cloudy,100,2013-05-17 22:55:00
7:14 PM,71.6,45.7,39,30.09,10.0,East,10.4,17.3,N/A,,Overcast,100,2013-05-17 23:14:00
7:35 PM,70.3,45.0,40,30.09,10.0,East,12.7,17.3,N/A,,Mostly Cloudy,100,2013-05-17 23:35:00
7:55 PM,68.9,43.7,40,30.10,10.0,ESE,12.7,19.6,N/A,,Scattered Clouds,110,2013-05-17 23:55:00
8:14 PM,67.8,42.8,40,30.10,10.0,East,11.5,17.3,N/A,,Mostly Cloudy,100,2013-05-18 00:14:00
8:35 PM,67.3,41.7,39,30.10,10.0,East,15.0,-,N/A,,Overcast,100,2013-05-18 00:35:00
8:55 PM,66.4,41.2,40,30.11,10.0,East,12.7,-,N/A,,Scattered Clouds,100,2013-05-18 00:55:00
9:14 PM,65.1,41.2,42,30.12,10.0,ESE,13.8,-,N/A,,Clear,110,2013-05-18 01:14:00
9:35 PM,64.0,41.7,44,30.12,10.0,ESE,9.2,18.4,N/A,,Clear,110,2013-05-18 01:35:00
9:54 PM,62.6,42.1,47,30.12,10.0,ESE,9.2,-,N/A,,Clear,110,2013-05-18 01:54:00
10:14 PM,61.2,42.1,50,30.12,10.0,East,11.5,16.1,N/A,,Clear,100,2013-05-18 02:14:00
10:35 PM,60.3,41.9,51,30.13,10.0,East,9.2,-,N/A,,Clear,100,2013-05-18 02:35:00
10:54 PM,59.4,41.7,52,30.14,10.0,SE,5.8,-,N/A,,Clear,140,2013-05-18 02:54:00
11:14 PM,58.6,41.4,53,30.14,10.0,SE,5.8,-,N/A,,Clear,130,2013-05-18 03:14:00
11:35 PM,57.6,41.7,56,30.15,10.0,East,5.8,-,N/A,,Clear,90,2013-05-18 03:35:00
11:54 PM,57.6,41.2,54,30.14,10.0,ESE,8.1,-,N/A,,Clear,120,2013-05-18 03:54:00